Find Starlink 4165

NORAD ID: 53286 Int'l Des: 2022-086 Owner: SPXS Country: US Constellation: starlink operational
LEOCIRCULAR

Live Position

Loading 3D Globe...

About Starlink 4165

Description loading...

Upcoming Passes

Passes for default location (London). Set your location on the main map for personalized predictions.

Altitude History

Loading altitude history...

Two-Line Element Set

1 53286U 22086AW 26106.45999542 .00000058 00000-0 21717-4 0 9999
2 53286 53.2187 14.2539 0001836 91.1419 268.9783 15.08838387206898
Epoch: Apr 16, 2026 • Age: 20 hours

Current Status

Altitude 551.6 km
Velocity 7.59 km/s
Sub-Earth Point -34.78°S, 90.51°W
Launch Date Jul 24, 2022
Age 3.7 years
Type internet

Technical Details

Classification Payload
Mass 297.00 kg
Dry Mass 275.00 kg
Total Mass 297.00 kg
Length 0.20 m
Diameter 2.80 m
Span 9.00 m
Shape Box + pan
Manufacturer SPXS
Bus Type Starlink
Phase Status In Orbit
Owner/State SPXS/US

Most Searched